Wind_Speed
25 24 23 22 21 20 19 18 17 16 15 13 13 11 10 8 8 8 8 7 7 7 8 8 9 11 12 14 15 17 18 19 21 23 24 25 26 26 27 27 28 29 29 30 31 31 31 31 29 28 26 25 21 17 11 6 2 6 11 10 9 10 9 7 9 11 13 14 15 16 16 15 15 15 15 14 15 16 17 18 19 21 21 21 22 22 22 22
29 27 26 25 24 23 22 21 20 18 17 16 15 14 13 11 10 9 9 9 9 8 8 8 8 9 10 11 13 14 16 17 19 20 22 23 24 25 25 26 27 28 28 29 29 30 31 31 31 29 28 28 24 21 17 10 4 3 7 9 9 9 7 7 8 10 12 13 13 14 14 13 12 11 10 10 10 10 11 11 12 13 13 13 13 13 14 14
31 31 29 28 27 26 25 24 23 21 20 19 18 17 15 14 13 12 11 10 10 10 9 9 8 8 8 9 10 12 13 15 16 18 19 21 22 23 24 24 25 26 27 28 28 29 30 31 31 30 29 29 27 24 19 15 10 3 3 8 9 7 7 7 7 8 10 11 12 13 13 12 11 10 9 7 6 6 5 5 5 7 7 7 7 8 8 10
34 33 32 32 30 29 28 27 26 25 23 22 21 20 18 17 16 15 13 12 12 11 11 10 9 8 8 8 8 9 11 13 14 16 17 19 20 22 23 23 23 24 25 26 27 27 29 29 30 30 29 30 29 26 23 21 18 9 1 5 8 8 8 7 7 7 7 9 9 10 10 9 8 7 6 5 4 4 4 4 4 4 4 4 4 4 5 7
37 36 35 34 33 32 31 30 29 28 27 25 24 23 21 20 19 18 16 15 14 13 13 12 11 9 8 8 8 8 9 10 12 14 15 16 18 19 21 22 22 23 23 24 26 26 27 28 29 29 29 30 31 28 26 25 21 13 5 2 6 8 8 7 7 7 7 8 9 9 9 7 6 6 5 4 3 5 5 5 5 5 5 5 4 3 3 5
39 38 38 37 36 35 34 33 32 31 30 29 27 26 25 23 22 21 20 18 17 16 15 15 14 12 10 9 8 8 7 8 10 12 13 14 16 17 19 20 21 21 22 22 24 25 25 26 27 28 28 30 32 30 27 26 22 16 10 3 4 7 7 8 9 8 8 9 10 10 10 9 8 7 6 4 3 5 5 5 6 5 4 4 4 3 2 3
38 39 39 39 38 38 37 36 35 34 33 32 31 29 28 26 25 24 23 21 20 19 17 17 17 15 13 11 10 9 8 8 8 10 11 13 14 15 16 18 19 20 21 21 22 23 24 25 26 27 27 29 31 30 28 26 21 17 13 8 5 5 8 9 10 10 10 11 12 12 11 10 10 9 7 4 4 5 5 5 5 4 3 3 2 1 1 3
38 38 38 38 38 39 39 38 38 36 35 34 33 32 31 30 28 26 25 24 23 22 20 19 19 19 16 13 11 11 10 9 8 9 10 11 12 13 14 16 17 18 19 20 21 21 22 24 24 25 25 27 29 29 29 26 20 16 16 12 8 6 8 10 11 11 11 11 11 12 12 10 10 10 8 5 4 5 6 5 3 2 3 1 1 1 1 2
40 39 38 38 38 38 38 39 39 39 38 37 36 35 34 33 31 29 28 27 26 25 24 22 21 21 20 17 14 13 13 11 10 9 9 11 11 12 12 13 15 16 18 19 20 20 21 22 23 23 23 24 27 28 28 25 21 17 17 15 12 8 6 8 10 11 11 11 11 11 11 10 9 8 6 4 4 5 6 4 2 1 0 1 3 3 2 1
43 42 41 40 39 38 38 38 39 39 39 39 38 37 36 35 34 32 31 30 28 27 26 25 24 23 23 21 17 16 16 14 12 11 10 11 11 11 11 11 13 14 15 17 18 19 19 20 20 21 21 21 24 27 26 24 22 20 18 17 15 11 7 6 7 9 10 11 11 10 10 9 9 7 5 4 4 4 4 3 4 4 4 5 5 5 5 5
47 46 44 43 42 41 40 39 39 39 39 39 39 39 38 37 36 35 34 32 31 30 29 28 28 26 25 24 21 20 18 15 15 14 12 12 12 12 11 10 11 12 13 14 16 17 18 18 18 19 19 20 22 25 24 21 21 21 20 19 18 16 13 10 8 8 9 11 12 11 10 9 8 6 4 3 3 4 5 6 7 7 9 9 8 8 9 9
51 50 49 47 46 45 43 42 41 40 40 39 39 40 40 39 38 37 36 35 33 33 32 31 31 30 28 27 25 24 21 18 18 17 15 14 13 13 12 11 10 11 11 12 13 14 16 16 16 17 18 19 20 22 21 18 19 21 22 21 19 19 18 16 14 13 12 12 12 11 10 8 6 4 4 4 4 6 8 9 9 10 11 11 11 11 11 11
56 55 54 52 51 49 48 46 44 43 42 41 40 40 40 40 39 38 38 37 36 35 34 33 33 33 31 29 28 27 24 21 21 20 18 16 15 15 14 12 11 11 10 10 11 12 13 15 15 15 16 18 19 19 18 17 18 20 21 21 19 18 18 18 19 18 16 15 13 12 10 8 7 6 6 6 7 8 9 9 10 11 12 12 13 13 12 12
61 60 59 57 56 54 52 51 49 47 45 44 43 42 41 41 39 39 39 39 38 37 36 36 36 36 34 32 31 29 27 26 23 22 21 19 18 18 17 15 13 12 11 9 9 10 11 12 14 14 15 16 17 17 16 15 16 17 19 20 19 18 17 17 17 17 16 15 14 13 11 10 10 10 10 10 11 11 10 10 11 12 12 12 12 12 12 13
66 65 64 62 61 59 58 56 54 52 50 48 47 45 44 42 41 40 40 40 40 39 39 39 39 39 37 36 34 32 30 29 26 24 24 23 21 20 19 17 15 14 13 10 9 9 9 10 12 13 13 14 14 15 14 14 14 15 16 18 18 17 17 17 16 15 16 15 14 13 11 10 11 11 12 12 13 12 11 11 12 12 12 11 11 11 12 13
70 69 68 67 65 64 62 61 60 58 56 53 51 49 47 45 43 42 42 41 41 41 41 42 42 41 40 39 37 35 33 32 29 28 27 26 24 23 22 20 18 17 15 13 11 10 8 8 9 10 11 12 13 13 13 13 12 13 14 15 16 16 16 17 16 16 16 16 16 14 12 12 11 11 11 13 13 13 13 13 13 12 11 11 11 11 11 12
73 72 72 71 70 68 66 65 64 63 61 59 56 53 51 49 46 45 44 43 42 42 42 43 43 43 42 41 40 38 36 34 33 32 30 28 27 26 25 22 20 19 19 17 14 12 10 8 7 8 9 9 11 11 11 11 11 11 11 12 13 14 14 15 15 15 16 16 16 16 15 15 13 13 13 13 13 14 14 14 13 12 11 11 11 11 11 11
76 75 75 74 73 72 70 68 67 66 65 63 61 58 55 53 50 49 47 46 44 43 43 43 44 45 44 42 42 42 40 37 37 36 33 31 30 29 27 25 23 22 21 20 17 15 13 10 8 7 7 7 8 9 10 10 10 10 10 9 10 11 12 13 13 13 14 14 14 15 15 15 15 14 13 13 14 13 12 12 12 11 11 11 11 10 10 10
79 78 78 77 76 75 74 72 71 70 69 66 64 62 59 57 55 53 51 50 48 46 46 45 46 46 45 44 44 44 42 41 40 39 36 34 33 32 30 28 27 25 24 23 21 19 17 14 11 8 7 6 6 7 8 9 9 9 9 8 8 8 9 10 10 10 11 11 12 12 13 13 13 13 12 12 12 12 11 10 10 10 10 10 10 9 8 8
81 81 80 80 79 78 77 76 75 75 72 69 67 66 63 60 59 57 55 55 54 51 49 49 49 48 47 46 45 45 45 44 44 42 39 37 36 35 33 31 30 28 28 26 23 22 20 18 15 12 9 7 6 7 6 7 8 7 8 8 7 6 6 6 7 8 8 8 8 9 10 10 9 10 10 10 10 10 9 8 8 8 8 9 9 9 9 9
83 82 82 82 82 81 80 79 79 79 76 73 70 68 66 65 64 61 60 60 59 55 53 52 52 51 48 47 47 47 47 46 47 45 41 40 39 37 36 34 33 33 31 28 26 25 24 21 19 16 13 10 8 8 6 6 7 7 7 7 7 6 5 4 4 5 6 6 6 6 6 6 6 7 9 9 9 8 7 7 7 8 8 9 9 9 9 10
85 85 84 84 83 83 82 82 82 82 80 77 74 71 70 69 68 64 63 64 62 58 56 55 55 54 51 49 49 48 48 47 48 47 44 42 41 41 40 38 37 36 33 30 29 29 27 23 22 20 17 14 11 10 9 7 6 7 7 7 7 7 6 5 4 3 3 4 5 5 4 4 3 4 6 7 7 7 7 7 7 8 8 9 9 9 9 10
87 87 86 86 85 84 83 83 83 84 83 80 77 75 74 73 71 67 65 67 65 61 59 60 58 56 53 52 51 49 49 49 49 49 46 44 44 44 43 41 40 38 35 32 32 33 30 26 25 24 22 18 15 14 12 10 7 7 8 8 7 7 7 6 6 5 3 2 2 2 3 3 3 2 3 4 5 6 6 6 6 6 7 7 8 9 9 9
88 89 88 88 87 86 85 84 84 84 84 82 80 79 78 76 73 70 68 68 69 66 63 63 61 59 58 56 55 52 51 51 50 50 48 46 46 45 45 44 42 39 37 36 36 35 32 28 27 27 25 22 19 17 16 13 11 9 9 9 8 8 8 7 7 7 6 4 2 1 1 2 2 2 3 4 3 4 4 4 4 5 5 6 7 8 8 8
88 89 89 89 89 89 88 86 85 85 85 83 82 82 80 78 75 73 71 70 72 71 66 65 65 64 63 60 57 55 54 52 51 51 49 48 47 46 47 47 44 41 41 39 38 38 36 31 30 30 28 25 23 21 19 17 15 12 12 11 10 10 10 9 8 8 9 8 6 4 3 3 3 3 3 4 5 4 3 2 2 3 4 5 6 7 7 7
84 86 89 89 90 90 90 88 87 86 86 84 83 83 81 79 77 75 73 72 73 73 68 67 69 67 64 62 61 60 57 55 55 53 51 50 48 48 48 47 45 45 44 42 40 40 38 34 32 33 32 29 26 24 22 20 18 16 15 13 11 11 11 11 10 9 9 10 9 7 7 6 5 5 4 5 6 6 6 4 3 4 5 6 6 7 7 8
77 81 85 87 88 90 91 90 88 87 87 86 85 84 81 79 77 76 75 72 73 75 71 70 72 70 67 66 65 63 59 59 59 56 54 52 50 50 49 48 48 47 46 44 41 41 41 37 35 36 35 32 29 28 26 24 22 20 18 17 15 13 12 13 12 11 10 11 12 10 9 9 8 8 7 6 6 7 8 8 7 6 7 8 8 8 9 9
71 75 78 82 84 87 91 91 88 87 88 88 86 84 83 80 78 77 75 72 73 75 73 72 73 73 70 68 67 64 62 64 63 59 57 55 53 52 50 49 49 49 48 44 42 45 45 40 38 39 38 35 33 32 29 27 27 25 22 20 19 16 14 14 14 13 12 12 13 12 11 11 11 10 10 9 8 8 9 11 11 10 10 11 11 10 10 11
65 69 72 76 78 81 87 90 88 87 88 89 86 85 84 81 79 78 75 74 75 75 74 74 73 74 73 70 68 67 66 66 65 63 61 59 56 53 51 50 51 51 48 45 45 48 45 41 41 40 38 37 37 35 32 31 31 28 25 24 22 20 18 16 16 16 15 14 14 13 12 13 13 12 11 10 9 9 9 11 12 12 13 13 14 13 12 12
60 63 66 71 73 76 81 86 86 86 88 89 86 86 85 82 80 77 75 77 77 75 75 75 75 75 74 71 70 70 68 68 68 66 64 62 59 56 53 52 52 51 48 46 47 48 45 43 42 39 39 40 40 37 35 36 35 32 29 27 25 25 22 19 18 18 17 17 16 14 14 14 15 15 13 11 11 11 10 10 12 13 14 14 15 17 16 14
59 59 60 64 69 72 76 79 80 82 86 87 87 86 85 83 80 76 76 79 78 77 77 77 77 76 75 73 71 71 71 70 70 69 67 65 63 59 57 55 53 51 48 46 46 48 46 43 40 40 41 43 42 39 38 40 39 34 32 30 29 29 26 22 22 21 20 20 19 17 15 15 17 18 16 14 14 14 13 12 13 14 15 16 17 19 19 16
59 58 58 60 64 69 73 73 73 77 82 85 87 87 86 83 78 75 78 80 79 80 81 80 79 78 76 75 73 73 73 72 72 71 69 68 66 62 60 58 55 53 49 47 47 49 47 44 42 42 44 45 45 42 40 42 42 38 36 34 33 33 29 26 26 25 24 24 22 20 18 17 20 21 19 18 17 16 16 15 15 15 16 17 19 21 23 20
59 58 58 58 61 66 68 68 68 72 76 80 84 86 87 83 76 76 80 80 80 84 84 82 82 80 78 77 75 75 75 74 74 73 71 71 68 64 63 61 59 56 52 50 51 51 49 47 46 45 45 47 47 43 42 44 45 42 39 37 38 37 32 29 29 29 28 27 26 23 20 20 22 23 21 21 21 19 18 17 18 18 18 18 19 21 24 24
60 58 59 59 60 62 63 62 63 67 71 75 78 82 85 82 78 79 81 81 83 86 85 84 84 81 79 78 77 76 76 76 76 75 74 73 70 67 65 63 61 59 56 54 53 53 51 48 46 46 47 49 49 46 46 48 49 45 41 40 41 38 33 33 34 33 32 30 27 26 24 24 25 25 23 23 23 23 22 21 21 22 22 22 21 21 23 25
60 59 60 61 60 59 58 56 59 63 68 71 73 75 78 79 81 83 83 84 87 88 87 86 85 83 80 79 78 77 76 76 76 76 76 74 72 69 66 65 63 61 59 56 55 55 52 49 48 48 49 50 51 50 50 51 50 46 42 41 41 39 37 38 37 36 35 31 29 29 28 28 29 27 26 26 25 26 26 25 25 25 26 26 26 25 25 25
62 60 61 63 60 56 53 53 56 59 64 67 67 67 69 74 80 85 87 88 89 88 88 87 84 83 81 80 79 78 78 77 77 77 76 74 73 71 69 67 65 64 62 59 58 58 55 51 51 51 51 50 52 53 52 51 50 48 43 41 43 44 43 42 39 37 37 34 32 33 32 32 32 29 28 28 28 28 29 29 29 30 31 30 30 30 29 28
62 61 63 63 59 54 52 53 53 54 59 62 62 61 63 68 75 83 90 92 91 89 88 85 84 83 82 81 80 80 80 79 79 78 76 74 74 73 70 69 67 65 64 62 61 61 58 57 57 56 55 54 55 56 54 52 51 50 45 44 47 48 45 42 40 38 38 37 36 36 35 35 34 31 30 31 31 30 31 31 32 33 34 33 33 34 34 33
62 63 63 61 59 56 54 53 51 51 54 57 58 59 61 64 71 81 90 94 93 90 86 85 85 84 83 82 81 81 82 81 80 79 77 75 73 73 72 70 68 66 65 64 64 63 62 61 62 60 58 57 57 58 56 53 53 51 48 47 48 48 46 43 41 40 41 40 39 38 38 38 36 33 32 33 34 34 34 34 35 36 36 35 35 35 35 36
63 64 62 60 60 59 55 52 50 49 49 53 56 58 59 63 69 78 87 94 94 90 86 86 86 84 83 83 82 83 82 82 81 80 78 75 73 74 74 72 70 68 67 67 66 65 65 64 64 62 59 59 60 60 57 55 54 52 50 48 46 48 49 47 43 43 43 42 41 40 41 41 39 36 34 35 37 36 36 37 38 40 39 38 37 37 36 37
63 63 61 60 61 60 55 52 51 48 47 49 54 56 58 61 66 74 84 91 93 90 88 88 87 85 85 84 84 84 83 82 82 81 78 76 74 75 76 74 72 71 70 70 69 68 68 67 66 64 62 61 61 59 58 56 55 54 51 49 48 49 52 51 47 45 45 44 43 43 44 44 42 40 38 38 38 37 37 38 40 41 41 40 41 40 39 39
63 63 62 61 61 59 57 53 51 49 46 48 52 55 57 59 64 71 79 86 90 89 90 89 87 86 85 85 85 85 84 83 82 81 79 77 75 75 76 76 75 74 74 73 71 70 68 68 68 66 64 63 59 58 61 60 57 55 53 51 51 52 53 53 49 47 47 46 46 46 46 45 43 43 43 41 39 38 39 41 41 41 41 42 42 42 42 42
64 63 62 61 60 59 58 54 52 49 47 48 51 54 56 58 61 68 75 81 86 89 91 91 89 87 86 86 87 87 86 85 84 82 80 78 75 75 77 79 79 78 77 75 72 71 70 71 72 69 66 63 60 60 64 63 59 57 56 54 54 53 53 53 52 51 51 49 48 48 47 45 45 46 47 44 42 41 42 43 43 41 40 42 43 44 44 44
65 63 62 60 59 58 58 55 53 51 49 49 50 52 54 56 59 65 71 77 82 88 92 93 91 89 88 88 89 89 88 87 85 84 81 78 76 75 77 80 82 81 79 76 75 74 75 74 73 71 68 66 65 64 66 66 63 59 57 56 55 54 54 54 55 56 54 51 50 49 47 46 46 47 49 48 45 45 46 45 43 42 41 43 45 46 46 46
65 64 62 59 58 57 57 58 57 54 52 50 50 51 53 54 57 62 68 75 80 86 91 94 93 91 90 92 92 91 89 88 87 85 82 78 76 76 78 81 84 83 80 77 76 77 78 76 74 74 72 69 68 66 66 66 64 60 58 58 57 57 56 57 59 59 56 53 52 51 49 49 49 49 50 50 48 49 49 47 44 44 44 44 46 48 49 49
65 65 62 58 58 58 58 61 59 55 52 50 49 50 51 52 55 60 65 73 79 85 90 93 94 93 93 94 93 90 89 89 87 85 83 80 77 77 79 81 83 83 79 77 78 80 79 77 76 77 75 71 68 65 64 65 65 63 61 60 59 60 60 60 62 60 57 55 55 54 52 52 52 51 51 51 50 51 51 49 48 47 46 46 48 50 51 51
64 65 62 59 58 59 60 62 60 55 53 50 48 49 50 51 54 58 62 69 77 84 89 92 95 95 95 95 93 91 90 89 87 86 85 82 80 80 80 80 80 79 78 77 79 81 80 78 79 79 77 73 70 67 67 68 68 67 66 64 63 63 63 64 65 62 59 59 59 58 57 56 54 52 52 52 52 52 52 51 50 49 47 48 50 52 53 53
64 65 65 62 60 61 62 63 61 57 54 51 49 51 50 51 54 56 60 67 76 83 89 93 96 97 96 97 96 93 91 89 88 88 86 83 82 81 80 78 76 76 77 78 80 81 80 79 79 80 78 75 73 72 71 71 71 70 70 69 67 66 66 67 66 64 62 62 63 62 60 58 55 53 53 54 54 54 54 53 51 49 48 50 52 53 53 54
65 66 67 65 63 62 64 66 64 61 57 53 52 52 51 51 54 56 59 67 76 84 90 93 97 99 98 99 98 94 92 90 89 89 87 84 83 82 79 78 77 76 76 78 80 81 80 79 79 79 78 77 76 74 73 73 73 72 71 71 69 68 68 68 68 66 65 64 65 65 63 59 56 54 55 56 56 56 55 53 50 50 50 51 52 54 55 55
69 69 69 69 67 65 66 69 68 64 61 58 54 53 51 50 53 55 59 67 75 83 88 92 97 101 101 100 99 97 94 92 91 90 87 83 82 81 79 79 79 78 78 78 79 79 78 77 77 77 78 78 77 75 73 74 74 73 72 72 71 71 71 71 70 69 68 68 68 68 65 60 57 57 59 60 59 58 57 54 51 52 52 52 55 57 57 56
73 73 72 72 72 70 69 71 70 66 64 60 55 52 50 50 53 57 59 65 73 80 86 91 96 100 101 101 100 99 97 93 92 89 85 83 82 81 80 80 81 80 79 79 79 79 77 76 75 76 77 78 77 76 74 74 74 73 72 71 73 74 74 74 73 73 72 71 70 69 65 61 60 62 64 64 63 60 58 56 55 55 54 54 57 60 59 57
76 76 76 75 75 75 73 73 72 70 66 61 55 53 53 53 56 58 57 60 68 77 84 90 96 98 100 101 101 101 98 94 91 89 86 85 84 82 82 82 81 80 80 80 80 80 78 76 75 75 76 76 76 75 74 72 71 70 71 72 73 74 75 75 74 74 74 73 72 70 67 64 65 67 67 67 65 62 60 60 59 58 57 57 59 61 62 60
78 78 78 78 78 78 77 76 75 72 68 62 58 57 57 57 57 55 54 56 64 74 82 88 94 96 98 101 101 100 98 95 92 89 87 87 87 85 84 84 82 80 79 80 80 79 78 77 76 76 76 76 75 74 73 71 69 70 72 73 73 73 74 75 75 75 75 74 73 71 69 68 69 71 70 69 67 65 64 64 62 61 60 60 62 64 64 64
Wind_Direction
235 236 236 237 239 240 240 241 240 241 243 247 250 252 255 263 275 288 296 306 316 327 341 353 4 13 18 23 25 25 24 23 23 23 24 27 29 30 32 33 31 31 31 32 33 34 35 35 33 34 36 34 30 29 24 13 289 236 225 207 209 226 195 176 200 199 202 198 194 197 197 198 202 208 213 219 225 230 235 239 242 244 247 250 253 256 259 262
236 236 236 236 237 239 240 242 242 243 243 245 249 252 253 256 262 273 284 292 300 307 318 329 345 357 7 16 21 23 22 21 21 21 22 23 26 28 29 32 31 30 29 30 31 32 33 34 32 30 35 35 30 29 29 30 16 238 213 204 205 219 198 182 199 192 188 180 174 177 174 173 177 182 189 198 210 219 227 234 240 240 241 244 248 253 258 264
238 238 237 237 236 236 238 240 242 244 245 245 247 249 252 255 256 262 271 280 288 293 300 308 321 337 349 4 12 18 19 18 18 18 19 20 23 25 27 29 31 30 28 28 28 30 31 32 33 28 32 37 33 29 28 38 40 23 218 206 197 208 207 196 207 194 179 168 162 162 155 153 155 156 154 159 175 189 200 210 224 227 228 233 240 249 255 261
240 240 240 239 238 237 236 237 239 242 244 246 247 247 249 253 256 258 261 268 276 284 289 294 301 313 328 343 356 8 13 14 14 13 15 16 19 22 24 26 28 30 28 27 26 27 29 30 32 28 29 37 36 29 25 36 43 34 323 210 189 197 200 196 214 205 181 163 155 149 142 141 139 131 124 126 147 167 178 182 190 201 200 198 206 225 240 246
242 242 242 242 241 241 239 237 237 238 240 243 245 247 248 250 254 256 258 261 266 273 281 285 288 294 305 320 334 349 2 7 8 8 10 11 14 18 21 23 25 28 28 27 25 25 26 28 31 29 27 35 38 31 25 33 39 36 24 192 179 187 191 191 208 207 187 163 149 142 138 140 134 125 127 136 167 190 188 182 183 179 171 163 162 180 214 232
245 244 244 244 243 243 243 241 239 238 238 239 241 243 245 248 251 254 256 259 261 266 272 279 281 283 289 299 311 326 342 354 359 360 2 5 8 12 16 20 22 25 27 27 26 24 24 26 28 29 28 32 38 33 27 32 35 33 32 52 154 179 185 191 203 199 182 166 155 149 144 144 143 140 141 139 166 189 189 187 188 180 167 156 148 157 211 243
247 247 247 246 246 245 245 245 243 242 240 239 239 239 241 243 246 251 255 257 259 262 266 272 277 278 279 284 294 306 319 330 343 349 352 356 0 5 11 15 18 21 25 26 26 24 23 24 25 27 29 31 37 35 30 33 32 30 37 54 100 162 184 194 201 193 182 173 163 155 150 151 153 151 144 129 136 161 171 179 185 190 183 152 131 135 246 268
248 248 248 248 248 248 247 247 247 245 244 241 240 240 239 239 241 245 250 254 256 259 261 265 271 274 275 275 281 292 302 308 320 333 338 343 349 357 3 9 13 16 21 24 25 24 22 24 23 23 29 33 36 35 33 34 31 29 35 49 78 128 176 196 202 194 185 180 171 159 153 154 158 159 153 137 141 153 159 163 167 189 200 174 74 56 298 284
249 248 248 249 249 249 249 249 249 248 247 245 244 242 241 240 239 240 244 249 253 256 258 261 265 269 272 271 272 283 288 292 302 313 320 328 335 344 353 1 6 10 17 20 23 24 22 24 22 18 25 34 38 38 34 32 32 34 38 45 61 91 144 183 197 195 185 179 175 162 153 151 148 153 157 148 153 163 164 161 126 121 183 4 29 39 17 333
250 249 249 249 249 249 249 250 250 250 250 249 247 246 243 242 240 239 239 243 248 252 256 258 260 263 268 269 269 275 277 281 290 296 302 311 319 327 339 349 356 2 10 16 19 23 22 23 23 18 19 30 40 42 35 29 31 38 46 53 61 75 102 146 175 183 180 177 172 161 154 148 133 128 134 140 147 159 161 135 98 77 51 41 53 59 59 57
251 251 251 251 250 250 250 250 250 250 251 250 250 249 247 245 243 241 240 240 242 246 251 255 258 259 262 266 268 268 268 274 282 284 289 296 304 311 320 332 341 349 360 10 15 20 22 21 22 19 16 23 38 45 36 27 32 39 46 56 66 75 87 107 128 143 155 166 167 157 148 138 124 115 115 127 133 132 125 106 90 76 59 57 66 69 68 66
253 253 253 252 252 251 251 250 250 250 250 250 250 250 250 249 247 245 242 241 240 242 247 251 255 257 258 261 264 265 265 270 275 277 280 286 293 298 303 313 322 332 344 359 7 14 19 20 20 19 18 18 31 44 38 26 32 41 44 52 64 72 78 88 100 111 120 132 143 141 133 125 113 104 110 123 124 117 108 95 85 76 67 65 66 64 62 63
254 254 254 254 254 253 252 251 251 250 250 250 250 250 250 250 249 248 246 244 242 241 243 248 252 255 256 257 260 262 264 266 268 272 275 279 284 287 291 297 305 314 324 341 355 5 13 16 16 17 20 20 23 36 38 27 31 40 45 49 60 71 76 80 85 91 97 104 112 114 112 111 105 107 114 113 112 110 99 87 82 77 73 70 64 57 56 56
253 254 255 255 255 254 254 253 252 251 251 250 250 250 250 250 250 250 249 247 245 243 243 245 249 252 254 255 257 259 261 261 263 267 271 273 276 278 281 285 291 298 305 319 334 350 4 10 12 13 18 21 18 25 30 26 29 39 46 50 56 68 76 79 80 82 86 90 95 99 106 106 101 102 104 102 101 100 95 87 83 80 78 75 65 60 59 55
252 253 253 254 255 255 255 254 253 253 252 251 251 251 250 250 250 250 251 250 248 246 244 244 246 249 251 253 253 255 258 260 262 264 267 269 269 271 274 277 282 286 291 299 311 327 347 359 5 8 14 20 18 18 20 20 26 36 46 53 56 62 69 74 79 81 84 87 88 92 100 102 99 96 94 93 90 89 89 87 85 81 81 76 68 69 65 58
253 253 253 253 253 254 254 254 254 253 252 251 251 251 251 251 250 250 250 251 250 248 246 245 245 246 248 250 252 252 255 258 260 260 261 264 265 267 269 272 275 280 283 286 292 303 319 340 353 1 7 15 16 14 11 11 18 29 42 52 57 61 65 69 72 75 79 81 82 84 87 91 92 90 87 85 82 82 83 83 83 83 80 74 70 75 72 64
253 253 253 253 253 252 252 253 253 253 252 251 251 250 251 251 251 250 250 250 250 250 248 246 245 245 246 248 250 251 252 254 256 256 257 260 263 264 266 268 271 274 277 279 281 286 294 308 329 344 356 8 14 10 4 4 9 19 31 45 57 63 66 68 69 71 74 77 79 79 80 81 82 85 86 84 80 80 82 83 83 82 77 72 74 79 75 70
252 252 253 253 253 253 252 251 251 251 251 251 251 250 249 250 251 251 251 251 250 251 251 249 248 247 246 247 249 250 250 251 252 254 255 257 260 262 264 266 268 269 273 274 275 278 281 285 298 317 332 352 6 2 357 356 3 9 15 28 47 62 69 71 72 73 75 76 77 77 76 75 77 81 82 79 75 77 82 85 84 79 72 68 71 75 73 67
252 252 252 252 252 252 252 251 251 250 249 249 250 250 249 249 249 250 251 252 251 250 251 251 250 249 248 247 247 249 250 250 250 251 252 254 256 259 261 263 265 267 268 269 271 274 276 276 279 289 302 323 344 348 348 348 353 360 1 7 24 46 64 73 76 77 77 79 79 77 77 76 76 78 77 73 70 72 77 82 80 74 70 66 61 58 54 47
251 251 251 251 251 251 251 251 251 250 249 248 248 249 249 248 248 248 249 250 250 249 248 249 250 249 248 247 247 248 249 249 250 250 250 251 253 256 258 260 262 263 263 265 268 270 271 272 273 275 281 295 311 321 331 337 341 348 350 350 357 12 37 63 75 77 77 81 83 79 76 74 74 76 74 70 67 67 65 68 68 62 59 56 47 42 38 33
251 250 250 250 250 250 250 250 250 251 250 248 247 247 248 248 248 247 247 248 248 248 247 247 248 248 248 247 246 247 247 248 249 249 248 249 250 253 255 256 257 258 259 262 265 266 266 268 271 271 271 276 286 293 302 316 325 333 335 333 334 341 354 15 52 72 73 73 85 88 69 56 65 72 70 64 61 62 60 59 59 54 51 47 39 35 33 28
251 250 250 249 249 249 249 249 249 250 250 249 248 247 247 247 247 246 247 248 248 247 248 248 248 248 247 247 246 246 247 247 249 249 248 247 248 250 251 251 252 254 256 260 262 262 263 265 268 269 268 268 272 278 281 287 303 317 319 318 318 320 326 332 344 20 53 57 74 94 77 45 49 64 63 60 54 52 53 57 57 51 45 41 38 36 30 24
252 251 250 249 249 248 248 249 249 249 249 249 248 248 247 246 246 245 247 249 248 247 248 249 248 249 248 247 247 246 246 247 247 248 247 246 247 247 249 250 250 252 254 257 258 259 261 263 265 267 266 265 265 269 273 272 277 294 302 303 305 308 308 310 313 318 331 8 46 77 79 54 46 34 30 43 55 53 45 44 46 43 36 32 31 33 29 22
252 252 251 250 249 248 248 247 248 249 249 248 247 247 246 247 246 246 246 248 249 246 245 247 248 249 248 246 246 246 246 246 246 247 247 246 246 247 248 249 249 251 252 253 255 258 260 260 262 263 264 264 264 264 266 267 265 272 283 288 293 298 298 295 294 296 298 295 297 315 330 355 3 14 10 5 25 47 46 40 34 28 25 21 18 21 22 14
253 252 251 251 250 249 248 247 247 247 248 248 247 246 246 246 246 246 246 246 248 246 244 245 246 246 246 246 246 246 246 246 247 247 247 246 246 246 246 247 248 249 249 250 253 256 256 257 260 262 263 263 263 262 263 264 263 262 268 274 281 288 289 287 284 282 285 286 282 277 280 289 304 319 333 332 336 352 10 21 22 4 358 360 359 357 359 358
252 252 251 251 250 250 248 247 246 246 247 246 246 246 245 245 245 245 245 245 247 246 244 245 245 244 244 245 246 245 245 246 246 246 246 245 245 245 246 246 247 247 247 248 249 253 255 256 258 260 261 260 261 262 261 261 260 258 257 257 260 269 277 281 281 277 277 279 277 272 269 271 278 288 297 305 313 320 325 330 338 333 329 333 337 334 335 339
253 252 251 251 250 250 249 248 247 246 246 245 245 245 245 244 243 243 243 244 245 246 244 243 245 244 243 243 244 244 244 245 245 244 244 244 244 244 245 246 246 246 247 247 248 252 253 252 253 256 258 259 260 260 260 259 258 256 252 249 246 246 256 269 273 273 272 272 273 272 269 270 269 271 276 282 294 304 308 310 311 312 312 314 316 319 322 324
254 252 251 250 250 250 249 247 246 246 246 245 244 244 244 243 242 242 241 241 242 244 243 242 243 244 242 242 243 244 244 245 245 245 244 243 243 243 244 245 245 245 246 246 246 248 249 249 250 253 256 258 259 259 259 260 258 255 252 250 247 241 241 254 262 265 266 266 268 269 267 268 267 266 269 271 276 284 292 298 301 303 303 302 304 308 312 313
257 254 252 251 249 249 249 248 246 245 245 245 244 244 243 242 241 240 240 239 240 241 243 242 242 243 242 241 242 243 243 245 246 245 245 244 243 243 243 244 244 245 247 246 245 247 249 249 249 251 255 257 258 259 260 260 259 257 255 253 252 247 240 244 253 258 261 262 264 266 266 267 266 265 268 271 270 270 276 285 291 295 297 297 299 299 301 304
261 257 254 252 250 248 248 248 246 244 244 245 244 243 242 241 240 239 238 238 238 239 240 241 241 241 241 240 240 241 242 243 245 245 245 244 244 243 243 243 244 246 247 247 246 248 250 249 250 252 254 256 257 258 260 261 259 258 257 256 256 254 247 243 246 250 256 260 261 265 268 269 268 266 265 266 268 269 271 276 283 289 292 294 297 297 296 299
265 261 258 255 252 249 247 247 246 244 243 243 243 243 242 240 239 238 237 237 237 237 238 239 239 239 239 238 238 239 240 241 243 243 243 244 243 243 243 243 244 246 246 247 248 249 250 251 252 252 253 255 256 257 258 259 259 259 259 258 257 256 253 249 248 247 251 255 255 256 260 267 271 269 266 264 264 267 270 272 276 281 287 293 296 296 295 299
268 264 262 259 256 251 247 246 246 245 243 242 242 242 241 240 238 237 237 236 236 236 235 236 237 237 237 237 236 236 238 239 241 242 243 243 243 242 243 243 243 244 244 245 246 247 248 248 248 248 249 252 253 253 255 258 259 258 257 258 257 256 254 253 253 250 249 251 250 247 247 256 265 268 270 269 266 265 269 273 275 277 283 291 296 297 298 301
271 267 265 262 260 255 248 244 244 245 244 242 240 240 240 239 237 236 237 236 235 235 234 234 235 235 236 236 235 235 236 237 238 240 241 242 242 242 242 243 243 242 241 241 242 243 244 244 244 245 246 249 251 251 252 255 256 255 254 255 256 256 257 257 256 253 251 251 250 248 245 250 257 261 267 270 270 270 271 273 276 278 280 283 288 292 296 301
274 271 268 264 262 258 251 245 243 244 244 242 240 239 239 238 236 235 236 235 234 234 234 233 234 234 234 235 235 235 236 236 237 238 239 241 242 241 242 243 243 243 242 241 242 243 244 244 244 244 245 246 248 248 248 250 252 253 253 253 255 258 259 258 255 254 253 252 254 254 251 252 255 257 261 265 271 275 276 277 279 280 281 279 279 284 289 296
276 273 270 267 263 260 255 249 244 243 243 242 239 238 238 236 234 234 234 234 234 233 233 232 232 232 233 233 235 235 236 236 236 237 238 239 240 240 241 242 243 244 244 243 244 245 246 246 245 245 245 246 247 247 246 248 251 253 253 254 256 257 255 254 254 255 256 255 257 258 256 255 256 256 258 263 268 272 276 279 280 282 282 282 282 283 285 290
277 274 271 268 264 260 258 254 246 242 242 241 239 237 236 235 233 232 233 233 233 233 232 232 232 232 232 232 233 234 235 235 235 236 237 238 239 240 240 240 241 242 243 243 243 244 244 244 244 244 245 246 247 248 248 248 250 252 253 254 255 254 252 253 254 256 258 259 258 258 257 256 257 257 259 262 264 268 272 275 278 280 281 283 285 285 284 286
277 274 271 269 267 263 260 257 250 244 241 240 238 236 234 233 232 231 231 232 232 232 232 232 231 231 232 232 233 233 234 234 234 235 236 236 238 240 240 240 241 242 243 242 242 242 242 241 241 241 242 243 244 246 247 247 248 251 252 251 252 253 254 255 256 256 258 259 258 259 259 258 259 259 261 263 264 266 268 272 275 277 278 280 283 284 286 286
277 274 271 270 269 265 260 257 254 247 241 239 238 235 232 232 231 230 230 230 231 231 231 231 230 230 230 231 232 233 233 234 234 234 234 234 236 238 239 239 240 241 242 242 242 242 242 241 242 242 242 243 244 246 246 247 249 251 252 252 253 256 257 257 256 255 255 256 257 258 260 261 260 260 261 265 266 266 268 270 272 272 273 275 277 280 284 286
276 273 272 270 268 265 261 258 256 250 243 240 239 235 231 231 230 229 229 229 229 229 230 230 230 229 229 230 232 232 233 233 234 234 234 233 233 236 238 238 238 239 240 241 241 242 242 243 243 243 243 243 245 246 247 249 251 253 254 254 255 256 257 257 255 254 254 254 255 256 258 259 260 260 259 261 263 265 267 269 270 270 270 271 273 275 278 282
275 272 271 269 266 265 262 259 256 252 246 241 239 236 232 231 231 230 230 229 228 228 228 229 229 228 228 229 230 232 232 233 234 234 233 233 232 233 236 237 237 237 238 239 240 240 242 243 244 244 243 243 245 248 250 250 251 252 253 253 253 253 255 256 255 254 255 255 254 254 255 257 260 260 259 258 259 262 264 266 268 269 270 270 271 272 273 275
273 271 270 268 266 265 263 259 256 253 248 243 240 236 233 232 232 231 230 229 228 226 227 228 228 228 227 228 229 230 231 231 232 233 233 232 231 232 235 236 236 236 237 238 239 240 242 243 244 244 244 245 246 248 249 249 249 250 251 251 251 252 254 256 258 257 256 256 255 254 255 257 259 260 260 258 258 260 262 263 265 267 270 271 272 272 271 271
271 269 268 267 265 264 263 260 257 254 251 246 241 237 234 233 233 232 230 229 227 226 226 227 228 227 227 227 229 230 230 230 231 231 231 231 230 230 233 235 236 235 236 237 238 239 240 241 242 243 243 245 245 245 247 249 248 248 250 251 252 253 255 257 258 257 256 256 257 257 257 257 257 259 260 260 259 259 259 261 262 264 268 271 273 274 273 273
269 267 267 266 265 264 263 261 258 254 252 247 241 237 235 235 235 233 230 228 227 225 225 225 226 226 227 227 227 228 229 230 230 230 230 230 230 230 231 233 235 235 234 235 237 238 239 240 242 243 242 243 243 243 245 248 248 249 250 252 253 254 256 257 257 257 257 258 259 260 259 259 258 258 260 261 261 260 259 260 262 264 266 270 273 275 276 277
266 265 265 264 264 263 262 261 257 253 251 247 241 238 236 235 236 234 229 227 226 224 224 224 225 225 226 227 227 226 227 229 230 230 229 228 229 230 230 232 235 235 234 235 236 238 240 241 242 244 243 242 243 244 247 250 253 253 253 253 254 255 255 256 257 258 259 260 261 261 260 259 258 258 259 260 261 261 261 262 264 264 266 268 271 274 275 275
263 263 263 262 261 261 260 259 256 253 250 247 243 240 237 237 238 236 230 226 225 223 223 223 224 224 225 227 227 227 227 228 229 229 229 228 227 229 230 231 234 236 236 235 236 237 239 240 241 243 244 244 245 247 249 252 254 254 252 252 253 254 254 255 256 258 259 260 261 260 259 258 258 259 261 262 262 262 264 265 265 266 267 268 269 271 273 275
260 261 261 259 257 257 257 258 257 255 251 247 245 243 239 238 240 236 230 226 225 223 222 222 223 223 224 227 227 226 227 227 228 229 229 228 226 227 229 231 234 236 237 237 238 239 240 240 241 242 244 244 244 244 245 247 249 250 250 249 249 250 252 253 254 256 257 258 259 259 259 259 260 262 263 264 264 265 265 266 266 267 269 270 270 271 272 275
258 258 258 256 255 255 257 258 258 256 252 248 245 244 239 238 240 236 230 226 224 223 221 220 221 222 223 226 226 226 226 226 228 229 229 229 228 227 229 231 233 235 238 238 239 239 240 240 241 243 244 244 244 243 243 245 246 248 250 251 250 251 252 254 255 256 257 258 259 260 260 262 263 264 265 266 266 266 266 267 269 270 271 271 272 273 274 275
257 256 256 255 254 254 255 257 257 256 254 249 247 245 240 239 240 236 230 226 222 221 221 219 219 220 221 223 225 225 225 225 226 228 228 228 229 229 228 230 231 232 234 237 239 239 240 241 242 243 244 245 244 244 245 247 248 249 250 253 254 255 256 257 258 259 259 260 260 260 261 262 264 265 265 265 265 266 267 269 271 272 272 272 273 274 274 275
257 255 255 255 254 253 253 255 255 255 253 250 247 245 241 240 241 238 232 227 222 220 220 219 219 220 220 222 224 224 224 224 225 227 227 228 229 230 230 230 231 231 232 235 237 239 240 241 242 244 245 245 245 245 245 246 248 248 249 251 253 255 256 258 259 260 260 259 260 261 262 263 265 266 265 265 265 266 268 271 272 272 272 273 273 273 274 276
255 254 253 253 253 251 251 252 254 254 253 250 247 245 243 242 243 240 234 229 224 220 219 219 220 221 221 221 223 224 223 223 224 225 226 227 228 230 231 231 231 232 233 234 237 238 239 240 242 243 245 245 246 246 245 246 247 249 250 251 252 253 254 256 257 259 260 260 262 263 265 267 267 266 266 266 267 268 270 271 271 271 272 273 274 275 276 277
252 251 251 250 250 250 249 250 251 252 251 249 247 245 244 242 242 240 236 231 226 221 219 219 219 220 222 222 223 224 224 223 223 224 224 226 226 227 229 231 231 232 233 234 236 238 239 239 240 242 244 245 246 247 246 247 248 250 251 251 252 253 254 255 256 258 259 260 262 263 265 266 266 265 266 267 268 270 271 271 271 272 273 273 274 276 277 277
249 248 248 248 248 248 248 248 249 250 250 248 246 245 244 242 241 239 236 233 229 223 219 219 219 219 221 223 223 224 224 223 223 223 224 225 226 226 227 229 230 231 233 235 237 238 239 240 240 241 242 244 245 247 247 247 247 248 250 251 252 254 255 256 256 256 258 259 260 262 264 264 264 264 265 267 269 270 270 271 271 271 272 273 273 274 276 278
Height
11021 11022 11023 11024 11024 11025 11025 11026 11026 11027 11027 11027 11028 11028 11028 11028 11028 11028 11028 11028 11028 11028 11028 11028 11028 11027 11026 11026 11025 11024 11023 11022 11020 11019 11017 11015 11014 11012 11011 11009 11007 11005 11004 11002 11000 10998 10996 10994 10992 10989 10986 10984 10984 10982 10980 10979 10978 10979 10979 10980 10981 10983 10983 10983 10984 10985 10985 10986 10987 10988 10988 10989 10989 10990 10990 10991 10992 10992 10993 10994 10994 10994 10995 10996 10997 10997 10997 10998
11019 11020 11021 11022 11022 11023 11024 11025 11025 11026 11026 11026 11027 11027 11027 11028 11028 11028 11027 11027 11027 11027 11027 11027 11027 11027 11027 11026 11026 11025 11024 11023 11022 11020 11019 11017 11015 11014 11012 11011 11009 11007 11005 11003 11002 11000 10997 10995 10993 10991 10987 10985 10984 10982 10981 10979 10978 10979 10978 10978 10980 10982 10982 10983 10984 10985 10985 10986 10986 10987 10987 10988 10988 10989 10989 10990 10990 10991 10992 10992 10993 10993 10994 10995 10995 10996 10996 10996
11016 11017 11018 11019 11020 11021 11022 11023 11023 11024 11025 11025 11026 11026 11027 11027 11027 11027 11027 11027 11026 11026 11026 11026 11027 11027 11027 11027 11026 11025 11025 11024 11023 11022 11020 11019 11017 11015 11014 11012 11011 11009 11007 11005 11003 11001 10999 10997 10994 10993 10990 10986 10984 10983 10983 10980 10978 10978 10977 10977 10979 10981 10982 10983 10984 10984 10985 10985 10985 10986 10986 10987 10987 10988 10989 10990 10990 10991 10992 10992 10993 10993 10993 10994 10994 10995 10995 10995
11013 11014 11015 11016 11017 11018 11019 11020 11021 11022 11023 11024 11024 11025 11026 11026 11026 11026 11027 11026 11026 11026 11026 11026 11026 11026 11027 11026 11026 11026 11025 11025 11024 11023 11021 11020 11018 11017 11015 11014 11012 11011 11009 11007 11005 11003 11001 10999 10996 10995 10993 10988 10984 10984 10984 10980 10977 10978 10978 10978 10979 10980 10981 10982 10983 10984 10984 10984 10984 10985 10986 10986 10987 10988 10989 10990 10991 10992 10992 10993 10993 10993 10993 10993 10994 10994 10995 10995
11011 11011 11012 11013 11014 11015 11016 11017 11018 11019 11020 11021 11022 11023 11024 11025 11025 11025 11026 11026 11026 11025 11025 11025 11025 11025 11026 11026 11026 11026 11025 11025 11024 11023 11022 11021 11020 11018 11016 11015 11013 11012 11011 11009 11007 11005 11003 11001 10999 10997 10995 10990 10985 10984 10984 10980 10978 10980 10980 10980 10979 10980 10981 10981 10982 10983 10984 10984 10984 10985 10986 10986 10987 10988 10989 10991 10992 10992 10993 10994 10994 10994 10994 10993 10993 10994 10994 10995
11007 11008 11009 11010 11011 11012 11013 11014 11016 11017 11018 11019 11020 11021 11022 11023 11024 11024 11024 11025 11025 11025 11024 11024 11024 11024 11025 11025 11025 11025 11025 11025 11024 11024 11023 11022 11021 11019 11018 11016 11014 11013 11012 11010 11008 11007 11005 11003 11001 10999 10997 10992 10987 10986 10986 10982 10981 10983 10982 10981 10980 10981 10981 10981 10981 10982 10984 10984 10984 10985 10986 10987 10988 10989 10990 10991 10992 10993 10994 10994 10995 10995 10995 10994 10993 10994 10994 10994
11004 11005 11006 11007 11008 11009 11010 11011 11013 11014 11015 11016 11017 11018 11019 11021 11022 11022 11023 11023 11023 11024 11024 11023 11023 11023 11023 11024 11024 11025 11025 11025 11024 11024 11023 11022 11021 11020 11019 11017 11015 11014 11013 11011 11010 11008 11006 11004 11002 11001 10999 10995 10990 10989 10988 10985 10985 10986 10985 10983 10981 10981 10981 10981 10981 10982 10984 10984 10985 10986 10986 10987 10988 10989 10991 10992 10992 10993 10994 10994 10995 10995 10995 10994 10994 10993 10994 10994
11000 11001 11002 11003 11004 11006 11007 11008 11009 11010 11012 11013 11014 11015 11016 11017 11019 11020 11021 11021 11022 11022 11022 11022 11022 11021 11022 11023 11023 11024 11024 11024 11024 11024 11023 11022 11022 11021 11020 11018 11016 11015 11014 11012 11011 11009 11008 11005 11004 11004 11001 10997 10993 10992 10990 10989 10990 10990 10987 10984 10982 10982 10981 10981 10981 10983 10984 10985 10985 10986 10987 10987 10988 10989 10990 10991 10992 10993 10994 10994 10995 10995 10995 10995 10994 10993 10993 10993
10996 10997 10998 10999 11000 11002 11003 11004 11005 11007 11008 11009 11010 11012 11013 11014 11016 11017 11018 11019 11020 11020 11021 11021 11021 11020 11020 11021 11022 11023 11022 11023 11023 11023 11023 11022 11021 11021 11021 11019 11018 11016 11014 11013 11012 11010 11009 11007 11006 11006 11004 11000 10996 10995 10994 10995 10995 10993 10989 10986 10983 10982 10982 10982 10982 10984 10985 10986 10987 10987 10988 10988 10989 10990 10991 10991 10992 10993 10993 10994 10995 10995 10995 10994 10993 10993 10993 10993
10991 10992 10994 10995 10996 10998 10999 11000 11001 11003 11004 11005 11007 11008 11009 11010 11012 11014 11015 11016 11017 11018 11018 11019 11019 11019 11019 11019 11021 11021 11021 11021 11022 11022 11022 11022 11021 11021 11021 11020 11019 11017 11016 11014 11013 11012 11011 11009 11008 11008 11006 11004 11000 10997 10998 11000 10999 10996 10992 10988 10985 10984 10984 10983 10983 10984 10985 10987 10987 10988 10989 10989 10990 10990 10991 10991 10992 10993 10993 10994 10994 10995 10995 10994 10993 10993 10992 10992
10987 10988 10989 10991 10992 10993 10995 10996 10997 10999 11000 11001 11002 11004 11005 11007 11008 11010 11012 11013 11014 11015 11016 11016 11016 11017 11017 11017 11019 11019 11019 11020 11021 11021 11021 11021 11020 11020 11020 11020 11019 11018 11017 11016 11014 11013 11012 11011 11010 11009 11008 11007 11002 10999 11001 11004 11002 10998 10994 10991 10989 10987 10986 10986 10985 10985 10986 10988 10988 10989 10989 10990 10990 10991 10991 10992 10992 10993 10993 10994 10994 10994 10994 10994 10993 10993 10992 10991
10982 10983 10984 10986 10987 10989 10990 10992 10993 10994 10996 10997 10998 11000 11001 11003 11004 11006 11008 11010 11011 11013 11013 11014 11014 11014 11015 11016 11017 11017 11017 11019 11019 11019 11020 11020 11020 11019 11019 11020 11019 11018 11018 11017 11015 11014 11013 11012 11011 11011 11010 11008 11004 11001 11004 11007 11004 11000 10997 10993 10991 10990 10989 10988 10988 10987 10988 10989 10989 10990 10990 10990 10991 10991 10992 10992 10993 10993 10993 10994 10994 10994 10994 10994 10994 10993 10992 10991
10976 10977 10979 10980 10982 10984 10985 10987 10989 10990 10991 10993 10994 10995 10997 10998 11000 11002 11004 11006 11008 11009 11010 11011 11011 11011 11012 11014 11014 11014 11016 11017 11017 11017 11018 11019 11019 11018 11018 11018 11019 11018 11018 11017 11016 11015 11014 11013 11012 11011 11010 11008 11006 11005 11006 11008 11005 11002 10999 10996 10994 10992 10991 10991 10990 10989 10990 10990 10990 10990 10991 10991 10991 10991 10992 10992 10993 10993 10993 10993 10993 10994 10994 10994 10995 10994 10993 10992
10969 10971 10973 10974 10976 10978 10980 10982 10983 10985 10987 10988 10989 10991 10992 10994 10996 10998 11000 11001 11004 11005 11007 11008 11007 11008 11009 11011 11011 11012 11013 11014 11015 11016 11016 11017 11017 11017 11016 11017 11018 11017 11017 11017 11016 11015 11014 11013 11012 11012 11010 11009 11008 11007 11007 11008 11007 11004 11001 10999 10997 10995 10994 10993 10991 10991 10991 10991 10991 10991 10992 10992 10992 10992 10992 10993 10993 10993 10993 10993 10994 10994 10994 10995 10995 10995 10994 10993
10962 10964 10966 10967 10969 10972 10974 10976 10978 10980 10981 10983 10984 10986 10987 10990 10993 10994 10995 10997 10999 11001 11003 11003 11004 11004 11005 11007 11008 11009 11010 11011 11013 11014 11013 11014 11015 11015 11015 11015 11016 11016 11016 11016 11016 11015 11014 11013 11012 11012 11010 11009 11009 11008 11008 11009 11008 11006 11003 11001 10999 10998 10996 10994 10993 10993 10992 10992 10992 10992 10993 10993 10992 10993 10993 10993 10993 10993 10993 10994 10994 10994 10995 10995 10995 10995 10995 10995
10954 10956 10958 10960 10962 10965 10967 10969 10971 10973 10975 10977 10979 10981 10983 10985 10989 10990 10991 10993 10994 10996 10998 10999 11000 11001 11002 11003 11004 11006 11008 11009 11010 11011 11011 11011 11012 11013 11013 11013 11014 11015 11014 11015 11015 11015 11014 11013 11012 11012 11011 11010 11009 11009 11009 11009 11008 11007 11005 11003 11002 11000 10998 10997 10996 10995 10994 10993 10993 10993 10993 10993 10993 10993 10994 10994 10993 10994 10994 10994 10994 10994 10995 10995 10995 10995 10995 10995
10945 10947 10949 10952 10954 10957 10960 10962 10964 10966 10968 10970 10973 10976 10978 10981 10984 10986 10987 10989 10990 10991 10993 10994 10995 10996 10998 10999 11001 11002 11004 11005 11006 11007 11008 11009 11010 11010 11010 11011 11012 11013 11012 11013 11013 11013 11013 11013 11012 11012 11012 11010 11010 11009 11010 11009 11008 11007 11006 11005 11004 11002 11001 10999 10998 10997 10995 10995 10994 10994 10994 10994 10994 10994 10994 10994 10994 10994 10994 10995 10995 10995 10995 10995 10995 10995 10995 10995
10936 10939 10941 10943 10945 10948 10952 10954 10956 10957 10960 10963 10966 10970 10973 10976 10979 10981 10982 10984 10986 10987 10988 10990 10991 10992 10994 10996 10997 10998 11000 11002 11002 11003 11005 11007 11007 11007 11008 11009 11010 11010 11010 11010 11011 11012 11012 11012 11012 11011 11011 11010 11009 11010 11010 11009 11008 11007 11007 11006 11005 11004 11003 11001 11000 10999 10998 10997 10997 10996 10996 10995 10995 10995 10995 10995 10995 10995 10995 10995 10995 10996 10995 10995 10995 10995 10995 10995
10927 10929 10932 10934 10936 10939 10943 10945 10947 10948 10952 10957 10960 10963 10967 10971 10973 10976 10978 10979 10981 10983 10984 10985 10986 10987 10990 10992 10993 10993 10996 10997 10998 10999 11002 11004 11004 11004 11005 11006 11007 11008 11008 11008 11009 11009 11010 11010 11010 11010 11010 11009 11009 11009 11010 11009 11008 11008 11007 11007 11006 11006 11004 11003 11002 11001 11000 10999 10999 10998 10997 10997 10997 10997 10997 10996 10996 10996 10996 10996 10996 10996 10996 10996 10995 10995 10995 10995
10917 10920 10922 10925 10927 10930 10933 10936 10937 10938 10943 10950 10953 10956 10961 10965 10966 10970 10972 10972 10973 10976 10978 10980 10980 10981 10985 10987 10989 10990 10991 10993 10993 10995 10998 11000 11001 11001 11002 11004 11004 11005 11005 11005 11006 11007 11007 11008 11008 11009 11008 11008 11008 11008 11009 11008 11008 11007 11007 11007 11006 11006 11005 11004 11003 11002 11001 11000 10999 10999 10998 10998 10998 10998 10998 10997 10997 10997 10997 10997 10997 10997 10996 10996 10996 10995 10995 10995
10907 10909 10912 10915 10917 10920 10924 10926 10928 10929 10933 10941 10945 10949 10955 10957 10958 10962 10964 10963 10965 10969 10972 10973 10973 10975 10979 10981 10984 10984 10985 10988 10988 10990 10994 10995 10997 10998 10999 11000 11001 11001 11001 11003 11004 11004 11004 11005 11005 11006 11007 11007 11007 11007 11007 11007 11007 11007 11007 11007 11006 11006 11006 11005 11004 11003 11002 11001 11000 10999 10998 10998 10998 10998 10998 10998 10998 10998 10998 10998 10997 10997 10996 10996 10995 10995 10995 10995
10896 10898 10901 10904 10907 10910 10913 10917 10918 10919 10924 10931 10937 10942 10946 10946 10949 10955 10958 10956 10958 10965 10968 10968 10968 10970 10973 10976 10977 10979 10981 10983 10983 10985 10989 10991 10993 10994 10994 10996 10997 10997 10999 11001 11001 11000 11001 11002 11003 11003 11004 11005 11006 11005 11005 11006 11006 11005 11005 11006 11005 11005 11005 11005 11005 11004 11003 11002 11001 11000 11000 10999 10998 10998 10998 10998 10998 10998 10998 10998 10998 10997 10996 10996 10996 10995 10995 10995
10885 10887 10890 10893 10896 10900 10903 10906 10908 10910 10914 10921 10928 10933 10934 10936 10941 10949 10952 10950 10952 10960 10962 10961 10963 10965 10969 10971 10971 10974 10976 10977 10978 10980 10983 10986 10988 10989 10990 10992 10992 10994 10996 10998 10997 10996 10998 11000 11000 11000 11002 11003 11004 11004 11003 11004 11004 11004 11004 11004 11004 11004 11004 11004 11004 11004 11004 11003 11002 11001 11000 11000 10999 10998 10998 10998 10998 10998 10998 10997 10997 10997 10997 10996 10996 10995 10995 10995
10873 10876 10879 10882 10885 10888 10892 10895 10898 10900 10904 10912 10918 10920 10923 10928 10935 10942 10946 10945 10943 10949 10954 10954 10957 10960 10962 10963 10964 10968 10970 10971 10973 10974 10977 10981 10982 10984 10986 10986 10988 10991 10993 10993 10993 10993 10995 10997 10997 10997 10998 11000 11001 11001 11001 11002 11002 11002 11003 11003 11003 11003 11003 11003 11003 11003 11003 11003 11002 11001 11001 11000 11000 10999 10998 10997 10998 10998 10998 10997 10997 10997 10996 10996 10995 10995 10995 10995
10861 10864 10867 10870 10873 10876 10880 10884 10888 10891 10894 10902 10906 10907 10914 10921 10927 10933 10937 10938 10934 10937 10947 10948 10949 10950 10952 10957 10960 10962 10964 10965 10967 10968 10971 10975 10977 10979 10980 10981 10984 10987 10987 10989 10990 10989 10990 10994 10995 10994 10995 10997 10998 10999 10999 10999 10999 11000 11001 11001 11002 11002 11001 11001 11002 11002 11002 11002 11002 11002 11001 11001 11000 10999 10998 10997 10996 10997 10997 10997 10997 10997 10996 10996 10995 10995 10994 10994
10849 10852 10854 10858 10861 10863 10867 10873 10878 10881 10884 10891 10894 10897 10906 10912 10919 10924 10926 10930 10927 10928 10940 10942 10938 10941 10946 10951 10953 10953 10957 10960 10960 10962 10965 10968 10971 10973 10974 10977 10980 10981 10982 10984 10986 10986 10987 10990 10992 10990 10991 10993 10995 10995 10996 10997 10997 10998 10999 10999 11000 11001 11000 11000 11000 11000 11000 11000 11000 11001 11001 11001 11001 11000 10999 10998 10996 10995 10996 10996 10996 10996 10995 10995 10995 10995 10994 10993
10838 10839 10842 10846 10849 10850 10853 10860 10867 10871 10873 10878 10882 10887 10896 10903 10910 10914 10916 10923 10920 10918 10930 10932 10928 10933 10940 10942 10942 10946 10953 10952 10951 10955 10958 10961 10964 10966 10969 10972 10974 10975 10976 10979 10983 10982 10982 10986 10988 10986 10987 10989 10991 10991 10992 10993 10994 10995 10996 10997 10998 10999 10999 10999 10998 10999 10999 10998 10998 10999 11000 11000 11000 11000 10999 10998 10996 10994 10994 10994 10995 10995 10994 10994 10994 10994 10993 10992
10827 10828 10830 10833 10837 10838 10838 10846 10857 10860 10860 10865 10872 10878 10885 10893 10899 10903 10908 10914 10910 10909 10918 10922 10921 10925 10930 10934 10937 10942 10945 10942 10943 10949 10951 10954 10957 10960 10964 10966 10967 10968 10970 10976 10979 10976 10975 10981 10983 10982 10983 10985 10986 10987 10988 10990 10990 10991 10993 10994 10995 10996 10997 10997 10997 10997 10997 10997 10997 10997 10998 10998 10999 10999 10999 10998 10997 10995 10994 10993 10993 10993 10993 10993 10993 10992 10992 10991
10815 10817 10820 10821 10825 10827 10824 10832 10845 10849 10848 10852 10862 10868 10873 10882 10888 10892 10901 10902 10899 10902 10907 10911 10914 10915 10921 10928 10931 10934 10936 10935 10937 10941 10943 10947 10951 10954 10958 10960 10960 10962 10966 10971 10972 10969 10972 10977 10978 10979 10980 10981 10981 10982 10984 10985 10985 10987 10989 10990 10990 10991 10993 10994 10994 10994 10995 10995 10995 10995 10996 10996 10997 10997 10997 10997 10997 10996 10994 10993 10992 10991 10991 10991 10990 10990 10991 10990
10804 10806 10809 10810 10813 10815 10813 10819 10831 10837 10837 10841 10850 10856 10861 10870 10876 10884 10892 10889 10889 10896 10897 10900 10903 10905 10912 10920 10923 10924 10927 10928 10928 10932 10936 10939 10943 10948 10951 10953 10954 10957 10962 10966 10966 10966 10969 10971 10973 10976 10977 10976 10976 10978 10980 10979 10980 10982 10984 10985 10986 10987 10989 10990 10991 10991 10992 10992 10993 10993 10993 10994 10994 10995 10996 10996 10995 10995 10994 10993 10991 10990 10990 10989 10988 10988 10989 10990
10794 10796 10799 10799 10801 10802 10802 10810 10819 10823 10826 10832 10837 10843 10850 10857 10866 10878 10880 10875 10881 10886 10885 10887 10891 10896 10902 10909 10914 10915 10918 10920 10920 10923 10929 10931 10935 10941 10944 10947 10950 10953 10957 10961 10962 10961 10963 10967 10971 10973 10972 10971 10971 10974 10975 10974 10974 10978 10979 10980 10981 10982 10984 10986 10987 10988 10988 10989 10990 10991 10992 10992 10991 10991 10993 10994 10994 10993 10993 10992 10991 10990 10988 10987 10986 10985 10985 10987
10784 10786 10788 10788 10788 10787 10792 10803 10808 10809 10815 10821 10824 10831 10838 10845 10859 10869 10863 10863 10872 10871 10870 10874 10878 10885 10890 10896 10904 10905 10907 10911 10912 10916 10921 10922 10927 10934 10938 10941 10944 10947 10952 10956 10956 10955 10958 10963 10965 10966 10966 10965 10966 10969 10971 10969 10970 10973 10974 10975 10976 10977 10979 10981 10982 10983 10984 10985 10986 10988 10990 10991 10989 10989 10990 10991 10991 10991 10991 10991 10990 10988 10987 10986 10984 10982 10981 10982
10774 10776 10777 10777 10776 10774 10782 10795 10799 10798 10802 10808 10813 10820 10825 10836 10852 10854 10847 10853 10858 10853 10857 10864 10867 10874 10880 10886 10892 10894 10897 10903 10905 10908 10912 10914 10920 10927 10930 10933 10936 10940 10945 10948 10947 10948 10952 10956 10958 10960 10961 10960 10961 10965 10967 10964 10964 10967 10970 10970 10970 10972 10975 10977 10977 10978 10979 10980 10981 10984 10986 10988 10987 10987 10987 10987 10987 10988 10989 10989 10987 10986 10986 10985 10983 10981 10979 10978
10763 10766 10765 10765 10765 10764 10771 10785 10791 10789 10790 10795 10803 10808 10814 10828 10839 10835 10834 10841 10840 10838 10847 10852 10856 10865 10872 10877 10882 10886 10891 10895 10897 10900 10903 10906 10912 10919 10923 10926 10930 10934 10937 10940 10941 10942 10946 10950 10953 10955 10956 10955 10955 10959 10961 10957 10957 10961 10965 10966 10966 10968 10971 10971 10971 10973 10974 10976 10977 10979 10982 10983 10983 10984 10984 10984 10984 10984 10985 10985 10985 10984 10983 10982 10981 10980 10979 10977
10753 10755 10754 10752 10754 10757 10763 10774 10779 10779 10779 10784 10792 10800 10807 10816 10819 10818 10822 10823 10821 10826 10834 10838 10846 10856 10863 10868 10873 10878 10883 10886 10889 10892 10895 10900 10905 10911 10916 10919 10923 10927 10929 10934 10937 10937 10941 10946 10948 10948 10948 10949 10949 10951 10953 10951 10952 10956 10960 10962 10963 10964 10965 10964 10966 10967 10969 10972 10974 10975 10977 10978 10978 10980 10981 10981 10981 10981 10981 10981 10981 10981 10979 10979 10979 10978 10977 10976
10742 10744 10743 10741 10744 10751 10756 10760 10764 10768 10770 10773 10783 10792 10795 10797 10800 10803 10806 10805 10807 10815 10821 10830 10842 10849 10855 10861 10865 10869 10873 10876 10880 10883 10889 10895 10897 10902 10908 10911 10915 10919 10922 10928 10930 10930 10934 10939 10939 10940 10942 10944 10944 10943 10945 10946 10948 10951 10955 10958 10957 10956 10957 10959 10961 10963 10964 10967 10969 10969 10971 10973 10974 10976 10977 10977 10978 10978 10978 10978 10978 10977 10976 10976 10975 10974 10974 10974
10731 10732 10731 10731 10736 10743 10746 10746 10751 10758 10761 10765 10773 10779 10780 10783 10786 10788 10788 10789 10795 10802 10812 10826 10835 10840 10846 10852 10856 10860 10862 10866 10870 10875 10882 10888 10890 10895 10900 10904 10908 10912 10915 10919 10920 10922 10926 10929 10929 10931 10935 10937 10936 10935 10937 10941 10943 10946 10951 10952 10949 10948 10952 10956 10958 10960 10960 10961 10963 10964 10965 10967 10969 10972 10972 10972 10973 10974 10974 10974 10974 10974 10973 10973 10972 10970 10970 10970
10721 10720 10720 10725 10728 10730 10733 10736 10740 10747 10751 10756 10760 10763 10767 10770 10770 10769 10769 10773 10781 10792 10806 10816 10821 10828 10836 10842 10846 10848 10852 10856 10861 10867 10874 10880 10886 10888 10891 10896 10901 10905 10908 10909 10912 10914 10917 10919 10920 10923 10928 10930 10929 10928 10931 10936 10939 10942 10945 10945 10944 10945 10948 10951 10953 10955 10955 10956 10958 10959 10960 10962 10964 10967 10968 10968 10968 10969 10970 10970 10970 10969 10969 10970 10970 10968 10967 10965
10710 10708 10711 10717 10716 10717 10723 10727 10730 10735 10741 10745 10746 10750 10755 10755 10753 10754 10755 10759 10771 10787 10798 10803 10809 10820 10827 10831 10835 10838 10843 10847 10851 10858 10865 10873 10880 10880 10881 10888 10893 10896 10898 10900 10904 10907 10908 10910 10912 10916 10921 10922 10920 10922 10928 10933 10934 10936 10938 10940 10941 10942 10942 10944 10947 10948 10949 10951 10953 10954 10955 10957 10959 10962 10964 10964 10964 10965 10966 10966 10965 10964 10965 10966 10966 10965 10965 10963
10699 10698 10702 10706 10704 10706 10713 10718 10720 10724 10730 10734 10735 10738 10742 10742 10742 10743 10744 10749 10764 10779 10786 10790 10798 10808 10814 10819 10823 10827 10833 10838 10842 10849 10857 10865 10872 10873 10873 10878 10883 10887 10888 10890 10895 10897 10899 10902 10904 10908 10913 10914 10916 10921 10924 10926 10928 10929 10932 10935 10937 10936 10934 10936 10939 10942 10944 10945 10947 10949 10950 10952 10954 10956 10958 10959 10960 10962 10962 10961 10960 10959 10960 10961 10961 10962 10962 10961
10688 10688 10692 10694 10695 10698 10702 10707 10710 10713 10719 10722 10723 10725 10728 10730 10731 10731 10735 10743 10757 10770 10776 10779 10788 10797 10805 10811 10813 10816 10821 10827 10832 10840 10848 10856 10864 10867 10866 10868 10873 10876 10877 10880 10886 10890 10894 10897 10897 10900 10904 10908 10915 10918 10914 10916 10921 10923 10926 10929 10929 10929 10928 10929 10933 10936 10937 10938 10940 10942 10944 10948 10949 10949 10950 10953 10956 10957 10957 10956 10955 10955 10956 10955 10955 10956 10957 10956
10677 10678 10681 10683 10686 10689 10691 10696 10700 10703 10708 10709 10710 10714 10718 10721 10722 10723 10728 10736 10748 10759 10764 10768 10777 10786 10794 10800 10803 10806 10810 10816 10822 10829 10838 10846 10855 10859 10859 10858 10860 10864 10868 10873 10880 10884 10886 10886 10886 10891 10898 10903 10909 10910 10904 10905 10913 10917 10919 10922 10923 10923 10924 10925 10927 10928 10930 10932 10934 10935 10939 10942 10944 10943 10943 10946 10950 10951 10951 10950 10950 10952 10952 10951 10949 10949 10950 10950
10665 10667 10671 10673 10677 10680 10682 10686 10689 10691 10695 10697 10700 10705 10708 10710 10711 10713 10719 10728 10738 10746 10751 10757 10766 10774 10782 10786 10789 10794 10799 10805 10812 10819 10828 10837 10845 10850 10851 10848 10847 10852 10859 10866 10872 10874 10873 10875 10879 10884 10892 10896 10898 10900 10897 10897 10905 10912 10914 10916 10917 10918 10919 10919 10918 10919 10922 10926 10928 10930 10933 10936 10938 10938 10937 10939 10942 10943 10943 10945 10947 10948 10948 10946 10944 10943 10943 10943
10654 10656 10662 10665 10668 10671 10672 10673 10675 10679 10683 10685 10690 10694 10696 10700 10702 10703 10710 10719 10726 10733 10739 10746 10755 10762 10768 10770 10774 10782 10789 10794 10801 10809 10819 10829 10836 10840 10840 10839 10837 10841 10852 10860 10864 10865 10864 10870 10875 10876 10881 10887 10890 10894 10895 10894 10899 10907 10910 10910 10911 10912 10913 10912 10910 10911 10916 10920 10920 10923 10927 10928 10930 10932 10932 10933 10935 10935 10935 10939 10942 10943 10943 10942 10940 10938 10937 10937
10644 10644 10652 10657 10659 10660 10660 10658 10661 10668 10672 10676 10681 10684 10688 10691 10692 10694 10701 10708 10714 10720 10728 10736 10744 10751 10754 10757 10765 10775 10781 10786 10793 10801 10809 10818 10825 10828 10828 10828 10829 10835 10847 10854 10855 10855 10856 10863 10867 10866 10872 10881 10887 10892 10895 10893 10893 10897 10901 10903 10904 10904 10905 10904 10902 10905 10911 10912 10912 10914 10918 10920 10923 10925 10925 10926 10928 10928 10929 10933 10935 10936 10937 10938 10936 10934 10931 10931
10634 10634 10640 10647 10648 10648 10648 10647 10652 10658 10662 10667 10672 10674 10677 10681 10680 10683 10691 10699 10704 10710 10717 10726 10732 10737 10743 10747 10755 10764 10772 10779 10786 10791 10798 10806 10813 10816 10817 10821 10828 10834 10842 10846 10846 10845 10849 10855 10857 10858 10864 10874 10881 10886 10887 10885 10884 10885 10889 10893 10896 10895 10895 10895 10895 10900 10904 10904 10903 10906 10909 10911 10916 10919 10919 10919 10921 10922 10924 10926 10927 10930 10932 10931 10929 10928 10926 10926
10624 10624 10627 10633 10637 10638 10638 10638 10642 10648 10651 10657 10661 10662 10666 10670 10670 10674 10681 10687 10693 10698 10704 10712 10717 10724 10732 10735 10741 10751 10761 10769 10777 10781 10788 10797 10803 10807 10813 10819 10826 10831 10833 10835 10835 10835 10840 10846 10849 10851 10857 10865 10871 10875 10876 10877 10878 10879 10879 10881 10886 10888 10887 10887 10889 10893 10897 10896 10896 10899 10901 10904 10910 10913 10913 10913 10913 10914 10916 10919 10921 10924 10926 10924 10922 10920 10919 10919
10612 10613 10615 10619 10625 10629 10629 10628 10631 10637 10640 10646 10650 10652 10656 10660 10660 10664 10670 10674 10678 10683 10690 10699 10705 10711 10717 10720 10727 10739 10749 10758 10766 10769 10778 10789 10795 10801 10809 10813 10816 10820 10822 10822 10823 10826 10832 10839 10842 10845 10850 10855 10860 10866 10870 10871 10872 10874 10874 10875 10878 10880 10880 10881 10882 10885 10887 10888 10888 10890 10893 10899 10904 10907 10907 10906 10906 10907 10909 10913 10916 10917 10918 10917 10915 10912 10911 10911
10599 10602 10604 10606 10612 10617 10618 10616 10620 10626 10629 10633 10639 10642 10647 10652 10653 10656 10659 10662 10666 10672 10681 10691 10695 10697 10703 10709 10716 10726 10736 10746 10753 10759 10771 10784 10790 10796 10803 10805 10807 10811 10813 10812 10814 10819 10826 10832 10836 10839 10842 10845 10850 10857 10862 10863 10863 10867 10870 10871 10872 10871 10871 10873 10874 10875 10877 10878 10879 10880 10886 10895 10899 10900 10899 10899 10900 10901 10904 10908 10911 10910 10911 10910 10907 10904 10904 10905
10587 10589 10591 10594 10598 10603 10606 10605 10609 10615 10617 10622 10630 10635 10640 10644 10643 10644 10648 10653 10659 10666 10675 10682 10685 10690 10697 10703 10708 10714 10723 10735 10744 10755 10768 10778 10783 10789 10794 10796 10799 10802 10806 10808 10809 10812 10819 10825 10830 10832 10833 10835 10840 10847 10852 10855 10857 10860 10864 10866 10865 10863 10863 10865 10865 10865 10867 10870 10872 10874 10881 10890 10893 10891 10890 10890 10893 10896 10899 10902 10904 10903 10904 10904 10899 10896 10897 10899
10572 10575 10577 10581 10584 10587 10592 10594 10598 10603 10606 10612 10621 10626 10628 10630 10629 10633 10641 10649 10655 10661 10668 10673 10677 10684 10691 10695 10698 10704 10715 10728 10739 10750 10761 10766 10771 10779 10782 10784 10790 10795 10800 10802 10801 10804 10811 10817 10821 10824 10825 10827 10832 10837 10844 10849 10853 10856 10857 10857 10856 10855 10856 10857 10858 10860 10861 10864 10867 10870 10877 10884 10883 10879 10879 10881 10885 10889 10892 10894 10895 10895 10896 10896 10893 10889 10888 10891
10555 10560 10563 10567 10570 10573 10577 10582 10586 10591 10595 10603 10610 10614 10615 10617 10621 10628 10636 10643 10648 10653 10660 10666 10670 10677 10682 10685 10690 10698 10709 10721 10733 10743 10751 10754 10760 10769 10771 10773 10780 10789 10794 10795 10796 10801 10805 10808 10812 10815 10817 10820 10824 10828 10835 10842 10847 10848 10847 10847 10848 10848 10849 10849 10851 10854 10855 10857 10862 10866 10871 10876 10873 10869 10871 10873 10877 10881 10883 10885 10886 10887 10888 10888 10885 10882 10882 10883